FW9021 Weather Reports


Display with metric or nautical units.
time (UTC)temp
F
wind
direction
speed
MPH
gust
MPH
rain 1hr
in
rain 24hr
in
rain mn
in
humidity
%
barometer
mb
20260904195541 90 291 1.0 3.0 0.00 0.00 0.00 59 1016.3
20260904195042 90 279 1.0 3.0 0.00 0.00 0.00 60 1016.5
20260904194634 90 355 1.0 3.0 0.00 0.00 0.00 60 1016.6
20260904194041 90 0 1.0 3.0 0.00 0.00 0.00 60 1016.7
20260904193541 90 299 0.0 3.0 0.00 0.00 0.00 59 1016.8
20260904193101 89 78 1.0 5.0 0.00 0.00 0.00 60 1017.0
20260904192544 89 278 2.0 5.0 0.00 0.00 0.00 61 1017.0
20260904192041 89 187 3.0 5.0 0.00 0.00 0.00 59 1017.1
20260904191600 89 248 2.0 6.0 0.00 0.00 0.00 59 1017.2
20260904191041 90 284 2.0 6.0 0.00 0.00 0.00 58 1017.3
20260904190541 90 0 1.0 4.0 0.00 0.00 0.00 59 1017.4
20260904190058 89 268 0.0 13.0 0.00 0.00 0.00 59 1017.3
20260904185541 89 153 2.0 13.0 0.00 0.00 0.00 61 1017.3
20260904185040 89 19 8.0 13.0 0.00 0.00 0.00 63 1017.3
20260904184554 89 317 3.0 8.0 0.00 0.00 0.00 64 1017.4
20260904184041 88 261 4.0 8.0 0.00 0.00 0.00 63 1017.3
20260904183540 88 234 3.0 7.0 0.00 0.00 0.00 64 1017.5
20260904183115 88 231 2.0 7.0 0.00 0.00 0.00 65 1017.7
20260904182539 88 269 3.0 7.0 0.00 0.00 0.00 65 1017.7
20260904182040 88 240 4.0 8.0 0.00 0.00 0.00 66 1017.8
20260904181608 88 261 3.0 8.0 0.00 0.00 0.00 65 1017.8
20260904181041 87 257 2.0 7.0 0.00 0.00 0.00 63 1017.8
20260904180541 87 266 3.0 8.0 0.00 0.00 0.00 65 1017.9
20260904180059 88 263 3.0 8.0 0.00 0.00 0.00 64 1017.9
20260904175539 88 272 4.0 8.0 0.00 0.00 0.00 65 1018.1
20260904175039 88 230 2.0 5.0 0.00 0.00 0.00 65 1018.0
20260904174602 87 331 1.0 6.0 0.00 0.00 0.00 64 1018.2
20260904174039 87 5 1.0 6.0 0.00 0.00 0.00 66 1018.3
20260904173540 86 244 1.0 3.0 0.00 0.00 0.00 67 1018.4
20260904173051 86 352 0.0 5.0 0.00 0.00 0.00 68 1018.4
20260904172539 86 311 1.0 7.0 0.00 0.00 0.00 68 1018.4
20260904172038 86 252 3.0 8.0 0.00 0.00 0.00 69 1018.4
20260904171618 86 242 4.0 8.0 0.00 0.00 0.00 69 1018.4
20260904171038 86 237 5.0 8.0 0.00 0.00 0.00 70 1018.4
20260904170538 85 258 4.0 8.0 0.00 0.00 0.00 71 1018.5
20260904170059 85 252 4.0 7.0 0.00 0.00 0.00 72 1018.6
20260904165538 85 248 3.0 6.0 0.00 0.00 0.00 71 1018.6
20260904165039 85 231 3.0 6.0 0.00 0.00 0.00 72 1018.6
20260904164556 84 265 3.0 7.0 0.00 0.00 0.00 72 1018.6
20260904164040 84 249 3.0 7.0 0.00 0.00 0.00 72 1018.6
20260904163538 84 223 1.0 5.0 0.00 0.00 0.00 74 1018.6
20260904163101 83 252 2.0 6.0 0.00 0.00 0.00 75 1018.7
20260904162541 83 236 4.0 6.0 0.00 0.00 0.00 76 1018.7
20260904162037 83 254 4.0 5.0 0.00 0.00 0.00 75 1018.8
20260904161600 83 229 3.0 6.0 0.00 0.00 0.00 75 1018.8
20260904161043 83 234 3.0 7.0 0.00 0.00 0.00 75 1018.8
20260904160539 83 225 4.0 7.0 0.00 0.00 0.00 75 1018.8
20260904160056 83 251 3.0 5.0 0.00 0.00 0.00 75 1018.9
20260904155538 82 247 3.0 5.0 0.00 0.00 0.00 76 1019.1
20260904155038 82 243 2.0 4.0 0.00 0.00 0.00 76 1019.1
20260904154556 82 242 2.0 4.0 0.00 0.00 0.00 76 1019.1
20260904154041 82 246 1.0 5.0 0.00 0.00 0.00 76 1019.1
20260904153538 81 238 3.0 5.0 0.00 0.00 0.00 77 1019.1
20260904153100 81 232 2.0 5.0 0.00 0.00 0.00 77 1019.1
20260904152539 81 207 2.0 4.0 0.00 0.00 0.00 78 1019.1
20260904152038 81 261 2.0 4.0 0.00 0.00 0.00 78 1019.2
20260904151604 81 256 2.0 3.0 0.00 0.00 0.00 78 1019.1
20260904151038 80 0 0.0 3.0 0.00 0.00 0.00 78 1019.0
20260904150542 80 276 1.0 3.0 0.00 0.00 0.00 78 1019.1
20260904145538 80 223 0.0 2.0 0.00 0.00 0.00 80 1019.2
20260904145039 79 0 0.0 2.0 0.00 0.00 0.00 80 1019.1
20260904144554 79 0 0.0 3.0 0.00 0.00 0.00 81 1019.1
20260904144038 78 0 1.0 3.0 0.00 0.00 0.00 81 1019.1
20260904143538 78 251 1.0 3.0 0.00 0.00 0.00 82 1019.0
20260904143130 78 309 1.0 2.0 0.00 0.00 0.00 83 1018.9
20260904142538 78 309 0.0 2.0 0.00 0.00 0.00 83 1018.9
20260904142038 77 0 0.0 3.0 0.00 0.00 0.00 83 1018.8
20260904141606 77 345 1.0 3.0 0.00 0.00 0.00 83 1018.9
20260904141040 77 261 1.0 3.0 0.00 0.00 0.00 83 1018.8
20260904140538 77 261 1.0 3.0 0.00 0.00 0.00 83 1018.7
20260904140056 77 261 1.0 3.0 0.00 0.00 0.00 84 1018.8
20260904135538 76 260 1.0 2.0 0.00 0.00 0.00 84 1018.8
20260904135041 76 305 0.0 2.0 0.00 0.00 0.00 84 1018.7
20260904134559 76 305 1.0 2.0 0.00 0.00 0.00 84 1018.8
20260904134043 75 335 0.0 2.0 0.00 0.00 0.00 84 1018.8
20260904133538 75 0 0.0 3.0 0.00 0.00 0.00 84 1018.8
20260904133100 75 229 1.0 3.0 0.00 0.00 0.00 84 1018.8
20260904132540 75 0 1.0 3.0 0.00 0.00 0.00 84 1018.9
20260904132039 75 230 0.0 3.0 0.00 0.00 0.00 84 1018.8
20260904131554 75 230 1.0 3.0 0.00 0.00 0.00 84 1018.9
20260904131038 74 0 0.0 2.0 0.00 0.00 0.00 83 1018.8
20260904130538 74 0 0.0 2.0 0.00 0.00 0.00 83 1018.9
20260904130054 73 93 0.0 3.0 0.00 0.00 0.00 82 1018.8
20260904125539 73 93 1.0 4.0 0.00 0.00 0.00 82 1018.9
20260904125039 72 98 1.0 4.0 0.00 0.00 0.00 82 1018.9
20260904124555 72 98 1.0 3.0 0.00 0.00 0.00 82 1018.8
20260904124039 72 59 2.0 3.0 0.00 0.00 0.00 82 1018.9
20260904123538 72 31 1.0 3.0 0.00 0.00 0.00 82 1018.8
20260904123056 72 64 1.0 2.0 0.00 0.00 0.00 82 1018.8
20260904122538 72 0 0.0 2.0 0.00 0.00 0.00 82 1018.7
20260904122038 72 0 1.0 3.0 0.00 0.00 0.00 82 1018.8
20260904121549 72 49 0.0 3.0 0.00 0.00 0.00 82 1018.8
20260904121042 72 36 1.0 2.0 0.00 0.00 0.00 82 1018.7
20260904120538 71 0 0.0 2.0 0.00 0.00 0.00 82 1018.6
20260904115537 71 67 0.0 1.0 0.00 0.00 0.00 82 1018.5
20260904115038 71 0 0.0 2.0 0.00 0.00 0.00 82 1018.7
20260904114556 71 0 0.0 2.0 0.00 0.00 0.00 82 1018.6
20260904114039 71 66 0.0 2.0 0.00 0.00 0.00 82 1018.6
20260904113539 71 0 0.0 2.0 0.00 0.00 0.00 82 1018.6
20260904113059 71 66 1.0 2.0 0.00 0.00 0.00 82 1018.6
20260904112542 71 0 0.0 2.0 0.00 0.00 0.00 82 1018.5
20260904112041 71 0 0.0 2.0 0.00 0.00 0.00 82 1018.3
20260904111604 71 67 1.0 2.0 0.00 0.00 0.00 82 1018.3
20260904111043 72 0 0.0 3.0 0.00 0.00 0.00 82 1018.3
20260904110539 72 67 1.0 3.0 0.00 0.00 0.00 82 1018.2
20260904110113 72 0 0.0 1.0 0.00 0.00 0.00 82 1018.2
20260904105541 72 0 0.0 1.0 0.00 0.00 0.00 82 1018.2
20260904105041 72 0 0.0 2.0 0.00 0.00 0.00 82 1018.2
20260904104559 72 0 0.0 2.0 0.00 0.00 0.00 82 1018.2
20260904104040 72 0 0.0 3.0 0.00 0.00 0.00 82 1018.2
20260904103539 72 82 1.0 3.0 0.00 0.00 0.00 82 1018.2
20260904103054 72 79 0.0 2.0 0.00 0.00 0.00 82 1018.0
20260904102539 72 0 0.0 2.0 0.00 0.00 0.00 82 1018.1
20260904102042 72 0 0.0 2.0 0.00 0.00 0.00 82 1018.1
20260904101559 72 0 0.0 2.0 0.00 0.00 0.00 82 1018.0
20260904101042 72 0 0.0 0.0 0.00 0.00 0.00 82 1017.9
20260904100539 72 0 0.0 0.0 0.00 0.00 0.00 83 1017.9
20260904100057 72 0 0.0 1.0 0.00 0.00 0.00 83 1017.9
20260904095539 72 0 0.0 2.0 0.00 0.00 0.00 83 1017.9
20260904095039 72 0 0.0 2.0 0.00 0.00 0.00 83 1018.0
20260904094601 72 67 0.0 2.0 0.00 0.00 0.00 83 1017.9
20260904094042 72 0 0.0 2.0 0.00 0.00 0.00 83 1018.0
20260904093539 72 0 0.0 2.0 0.00 0.00 0.00 83 1017.9
20260904093059 72 0 0.0 2.0 0.00 0.00 0.00 83 1017.9
20260904092540 73 0 0.0 2.0 0.00 0.00 0.00 83 1017.9
20260904092039 73 0 0.0 4.0 0.00 0.00 0.00 83 1017.9
20260904091559 73 103 2.0 4.0 0.00 0.00 0.00 83 1017.9
20260904091039 73 25 1.0 4.0 0.00 0.00 0.00 83 1017.9
20260904090539 73 0 0.0 3.0 0.00 0.00 0.00 83 1017.8
20260904090106 73 0 0.0 3.0 0.00 0.00 0.00 82 1017.9
20260904085543 73 66 1.0 3.0 0.00 0.00 0.00 82 1017.8
20260904085039 73 98 0.0 2.0 0.00 0.00 0.00 83 1017.9
20260904084554 73 98 0.0 2.0 0.00 0.00 0.00 83 1017.7
20260904084038 73 0 0.0 2.0 0.00 0.00 0.00 83 1017.7
20260904083540 73 0 0.0 2.0 0.00 0.00 0.00 83 1017.7
20260904083102 73 98 0.0 2.0 0.00 0.00 0.00 83 1017.7
20260904082543 73 0 0.0 2.0 0.00 0.00 0.00 83 1017.7
20260904082039 73 0 0.0 2.0 0.00 0.00 0.00 83 1017.8
20260904081559 73 98 0.0 2.0 0.00 0.00 0.00 83 1017.8
20260904081039 73 0 0.0 2.0 0.00 0.00 0.00 83 1017.7
20260904080540 74 69 0.0 2.0 0.00 0.00 0.00 83 1017.6
20260904080056 74 0 0.0 2.0 0.00 0.00 0.00 83 1017.7
20260904075541 73 69 0.0 2.0 0.00 0.00 0.00 83 1017.7
20260904075041 73 0 0.0 2.0 0.00 0.00 0.00 83 1017.7
20260904074618 73 0 0.0 2.0 0.00 0.00 0.00 83 1017.7
20260904074039 73 0 0.0 2.0 0.00 0.00 0.00 83 1017.7
20260904073542 73 69 0.0 2.0 0.00 0.00 0.00 83 1017.6
20260904073110 73 0 0.0 0.0 0.00 0.00 0.00 83 1017.7
20260904072538 73 0 0.0 1.0 0.00 0.00 0.00 83 1017.6
20260904072038 74 0 0.0 2.0 0.00 0.00 0.00 83 1017.5
20260904071607 74 0 0.0 2.0 0.00 0.00 0.00 83 1017.5
20260904071040 74 338 0.0 3.0 0.00 0.00 0.00 83 1017.5
20260904070541 74 39 1.0 3.0 0.00 0.00 0.00 83 1017.6
20260904070059 74 39 1.0 3.0 0.00 0.00 0.00 83 1017.6
20260904065541 74 39 1.0 3.0 0.00 0.00 0.00 83 1017.6
20260904065040 74 21 1.0 3.0 0.00 0.00 0.00 83 1017.8
20260904064553 74 53 1.0 3.0 0.00 0.00 0.00 83 1017.7
20260904064040 74 53 1.0 3.0 0.00 0.00 0.00 83 1017.8
20260904063540 74 53 1.0 2.0 0.00 0.00 0.00 83 1017.8
20260904063100 74 53 1.0 2.0 0.00 0.00 0.00 84 1017.8
20260904062539 74 53 0.0 2.0 0.00 0.00 0.00 84 1017.9
20260904062039 74 53 1.0 2.0 0.00 0.00 0.00 84 1017.9
20260904061558 74 50 0.0 2.0 0.00 0.00 0.00 83 1018.0
20260904061043 75 0 0.0 3.0 0.00 0.00 0.00 84 1018.0
20260904060541 75 0 0.0 3.0 0.00 0.00 0.00 83 1017.9
20260904060100 75 35 2.0 3.0 0.00 0.00 0.00 83 1017.9
20260904055540 75 43 1.0 3.0 0.00 0.00 0.00 84 1018.0
20260904055040 75 5 1.0 2.0 0.00 0.00 0.00 84 1017.9
20260904054556 75 0 0.0 2.0 0.00 0.00 0.00 84 1018.0
20260904054040 75 0 0.0 2.0 0.00 0.00 0.00 84 1018.1
20260904053540 75 5 1.0 3.0 0.00 0.00 0.00 83 1018.0
20260904053050 75 5 0.0 3.0 0.00 0.00 0.00 84 1018.0
20260904052541 75 0 0.0 2.0 0.00 0.00 0.00 84 1018.2
20260904052041 76 0 0.0 2.0 0.00 0.00 0.00 84 1018.3
20260904051557 76 0 0.0 2.0 0.00 0.00 0.00 83 1018.2
20260904051040 76 44 0.0 2.0 0.00 0.00 0.00 84 1018.2
20260904050540 76 0 0.0 2.0 0.00 0.00 0.00 84 1018.4
20260904050056 76 44 0.0 2.0 0.00 0.00 0.00 84 1018.4
20260904045540 76 44 0.0 2.0 0.00 0.00 0.00 84 1018.4
20260904045040 76 0 0.0 0.0 0.00 0.00 0.00 84 1018.5
20260904044553 76 0 0.0 0.0 0.00 0.00 0.00 84 1018.5
20260904044044 76 0 0.0 1.0 0.00 0.00 0.00 84 1018.5
20260904043540 76 0 0.0 1.0 0.00 0.00 0.00 84 1018.5
20260904043056 76 0 0.0 2.0 0.00 0.00 0.00 84 1018.5
20260904042542 76 0 0.0 2.0 0.00 0.00 0.00 84 1018.5
20260904042041 76 0 0.0 2.0 0.00 0.00 0.00 84 1018.5
20260904041559 76 44 0.0 2.0 0.00 0.00 0.00 84 1018.6
20260904041039 76 0 0.0 2.0 0.00 0.00 0.00 84 1018.6
20260904040540 76 44 0.0 2.0 0.00 0.00 0.00 84 1018.5
20260904040059 77 44 1.0 2.0 0.00 0.00 0.00 84 1018.6
20260904035538 77 0 0.0 2.0 0.00 0.00 0.00 84 1018.6
20260904035041 77 0 0.0 2.0 0.00 0.00 0.00 84 1018.6
20260904034552 77 0 0.0 2.0 0.00 0.00 0.00 84 1018.6
20260904034039 77 44 0.0 2.0 0.00 0.00 0.00 84 1018.5
20260904033537 77 57 0.0 2.0 0.00 0.00 0.00 84 1018.6
20260904033050 77 57 1.0 3.0 0.00 0.00 0.00 84 1018.6
20260904032539 78 5 1.0 3.0 0.00 0.00 0.00 84 1018.7
20260904032038 78 101 1.0 3.0 0.00 0.00 0.00 84 1018.8
20260904031558 78 131 0.0 2.0 0.00 0.00 0.00 84 1018.8
20260904031038 78 96 0.0 2.0 0.00 0.00 0.00 84 1018.7
20260904030538 78 0 0.0 0.0 0.00 0.00 0.00 84 1018.8
20260904030056 78 0 0.0 1.0 0.00 0.00 0.00 84 1018.7
20260904025538 78 0 0.0 1.0 0.00 0.00 0.00 84 1018.8
20260904025038 78 113 0.0 1.0 0.00 0.00 0.00 84 1018.7
20260904024549 78 113 0.0 1.0 0.00 0.00 0.00 84 1018.7
20260904024038 78 0 0.0 1.0 0.00 0.00 0.00 84 1018.7
20260904023537 78 0 0.0 2.0 0.00 0.00 0.00 84 1018.7
20260904023059 78 113 1.0 2.0 0.00 0.00 0.00 84 1018.6
20260904022538 78 113 1.0 2.0 0.00 0.00 0.00 84 1018.6
20260904022039 78 82 0.0 2.0 0.00 0.00 0.00 84 1018.5
20260904021559 78 82 0.0 2.0 0.00 0.00 0.00 84 1018.6
20260904021038 78 82 0.0 2.0 0.00 0.00 0.00 84 1018.5
20260904020542 78 82 0.0 2.0 0.00 0.00 0.00 84 1018.5
20260904020057 78 82 1.0 2.0 0.00 0.00 0.00 84 1018.5
20260904015538 79 82 1.0 2.0 0.00 0.00 0.00 84 1018.4
20260904015039 79 82 0.0 2.0 0.00 0.00 0.00 84 1018.3
20260904014557 79 82 0.0 2.0 0.00 0.00 0.00 84 1018.3
20260904014037 79 0 0.0 2.0 0.00 0.00 0.00 84 1018.2
20260904013537 79 82 0.0 1.0 0.00 0.00 0.00 84 1018.2
20260904013055 79 82 0.0 1.0 0.00 0.00 0.00 84 1018.3
20260904012541 80 82 0.0 1.0 0.00 0.00 0.00 84 1018.2
20260904012038 80 82 0.0 2.0 0.00 0.00 0.00 84 1018.0
20260904011559 80 0 0.0 2.0 0.00 0.00 0.00 84 1018.0
20260904011037 80 82 0.0 2.0 0.00 0.00 0.00 84 1017.9
20260904010538 80 82 0.0 2.0 0.00 0.00 0.00 84 1017.9
20260904010056 80 0 0.0 2.0 0.00 0.00 0.00 84 1017.9
20260904005538 80 0 0.0 2.0 0.00 0.00 0.00 84 1017.7
20260904005038 80 82 1.0 2.0 0.00 0.00 0.00 84 1017.5
20260904004553 80 17 0.0 2.0 0.00 0.00 0.00 84 1017.5
20260904004038 81 0 1.0 3.0 0.00 0.00 0.00 84 1017.4
20260904003537 81 17 1.0 3.0 0.00 0.00 0.00 83 1017.4
20260904003100 81 17 1.0 2.0 0.00 0.00 0.00 83 1017.3
20260904002538 81 0 0.0 2.0 0.00 0.00 0.00 82 1017.3
20260904002038 81 0 0.0 2.0 0.00 0.00 0.00 83 1017.2
20260904001605 81 9 0.0 2.0 0.00 0.00 0.00 83 1017.0
20260904001038 82 9 0.0 2.0 0.00 0.00 0.00 83 1017.0
20260904000538 81 0 0.0 2.0 0.00 0.00 0.00 83 1017.1
20260904000055 81 9 1.0 3.0 0.00 0.00 0.00 83 1017.0
20260903235539 82 9 1.0 4.0 0.00 0.00 0.00 82 1017.1
20260903235038 82 9 2.0 4.0 0.00 0.00 0.00 82 1017.0
20260903234556 82 9 2.0 4.0 0.00 0.00 0.00 82 1017.0
20260903234040 82 20 2.0 4.0 0.00 0.00 0.00 82 1016.8
20260903233537 83 14 2.0 4.0 0.00 0.00 0.00 81 1016.8
20260903233052 83 19 2.0 4.0 0.00 0.00 0.00 80 1016.9
20260903232540 83 13 2.0 4.0 0.00 0.00 0.00 81 1016.8
20260903232038 84 12 2.0 4.0 0.00 0.00 0.00 80 1016.7
20260903231557 84 22 3.0 4.0 0.00 0.00 0.00 79 1016.7
20260903231038 84 22 2.0 3.0 0.00 0.00 0.00 78 1016.7
20260903230542 85 22 2.0 3.0 0.00 0.00 0.00 78 1016.7
20260903230057 85 22 2.0 4.0 0.00 0.00 0.00 78 1016.7
20260903225540 85 22 2.0 4.0 0.00 0.00 0.00 77 1016.7
20260903225038 85 22 2.0 3.0 0.00 0.00 0.00 76 1016.7
20260903224551 86 22 1.0 3.0 0.00 0.00 0.00 75 1016.7
20260903224038 86 28 1.0 3.0 0.00 0.00 0.00 74 1016.8
20260903223541 86 28 1.0 3.0 0.00 0.00 0.00 75 1016.9
20260903223103 86 28 2.0 3.0 0.00 0.00 0.00 74 1016.9
20260903222539 87 28 1.0 3.0 0.00 0.00 0.00 71 1016.9
20260903222041 87 28 1.0 3.0 0.00 0.00 0.00 72 1017.0
20260903221556 87 28 2.0 3.0 0.00 0.00 0.00 71 1016.9
20260903221038 88 5 2.0 3.0 0.00 0.00 0.00 69 1016.8
20260903220541 89 5 1.0 3.0 0.00 0.00 0.00 69 1016.9
20260903220104 89 0 1.0 3.0 0.00 0.00 0.00 67 1016.9
20260903215538 89 5 1.0 4.0 0.00 0.00 0.00 65 1016.9
20260903215042 89 251 2.0 4.0 0.00 0.00 0.00 60 1016.8
20260903214553 89 246 2.0 4.0 0.00 0.00 0.00 61 1016.8
20260903214040 89 242 3.0 4.0 0.00 0.00 0.00 61 1016.7
20260903213540 89 247 3.0 4.0 0.00 0.00 0.00 61 1016.9
20260903213103 89 246 2.0 4.0 0.00 0.00 0.00 60 1016.8
20260903212540 89 234 1.0 4.0 0.00 0.00 0.00 62 1016.9
20260903212041 89 0 1.0 4.0 0.00 0.00 0.00 62 1016.9
20260903211557 88 249 3.0 5.0 0.00 0.00 0.00 62 1016.9
20260903211040 89 253 3.0 5.0 0.00 0.00 0.00 62 1016.9
20260903210543 89 260 2.0 4.0 0.00 0.00 0.00 61 1016.9
20260903210100 88 0 0.0 4.0 0.00 0.00 0.00 63 1017.1
20260903205544 88 331 2.0 4.0 0.00 0.00 0.00 64 1017.1
20260903205040 87 5 2.0 4.0 0.00 0.00 0.00 65 1017.3
20260903204552 87 13 2.0 5.0 0.00 0.00 0.00 66 1017.2
20260903204040 87 89 3.0 5.0 0.00 0.00 0.00 68 1017.4
20260903203539 87 53 2.0 5.0 0.00 0.00 0.00 68 1017.5
20260903203050 86 29 3.0 5.0 0.00 0.00 0.00 69 1017.6
20260903202540 86 5 3.0 4.0 0.00 0.00 0.00 68 1017.5
20260903202042 85 0 2.0 4.0 0.00 0.00 0.00 69 1017.7
20260903201556 85 43 0.0 2.0 0.00 0.00 0.00 70 1017.6
20260903201044 85 0 0.0 2.0 0.00 0.00 0.00 70 1017.7
20260903200540 85 0 0.0 2.0 0.00 0.00 0.00 71 1017.8
20260903200109 84 315 0.0 4.0 0.00 0.00 0.00 71 1017.8